Tracking 27086 objects as of 22-Mar-2023
HD Live streaming from Space Station
objects crossing your sky now

ONEWEB-0658

Track ONEWEB-0658 now!
10-day predictions
ONEWEB-0658 is classified as:


NORAD ID: 55819
Int'l Code: 2023-029Z
Perigee: 590.8 km
Apogee: 608.2 km
Inclination: 86.5 °
Period: 96.5 minutes
Semi major axis: 6970 km
RCS: Unknown
Launch date: March 9, 2023
Source: United Kingdom (UK)
Launch site: AIR FORCE EASTERN TEST RANGE (AFETR)
Your satellite tracking list
Your tracking list is empty




NASA's NSSDC Master Catalog

Two Line Element Set (TLE):
1 55819U 23029Z   23081.31957572  .00007543  00000-0  74449-3 0  9997
2 55819  86.5105 193.7966 0012432 165.9015 194.2563 14.91789922  2559
Source of the keplerian elements: AFSPC